Location: Castelbiague
(43.0361°N, 0.9246°E)
Time: 08:28:18
(UTC+00:00)

Cosmos 1464 Rocket - Visible Passes

Search period start: 28 October 2021 00:00
Search period end: 07 November 2021 00:00
Orbit: 953 x 1001 km, 82.9° (Epoch: 27 October)

Date Brightness Start Highest point End Pass type
(mag) Time Alt. Az. Time Alt. Az. Time Alt. Az.
31 Oct 6.6 05:55:18 10° NNE 05:58:38 14° ENE 06:01:57 10° E visible
03 Nov 6.8 05:27:55 10° NE 05:30:33 13° ENE 05:33:10 10° E visible
04 Nov 6.4 05:52:04 10° NNE 05:56:58 22° ENE 06:01:49 10° ESE visible
06 Nov 6.9 05:00:54 10° NE 05:02:27 11° ENE 05:03:59 10° ENE visible
